Data supplied by UK-AIR on 5/4/2008
All Data GMT hour ending 
Status: R =Ratified P=Provisional,P*=As supplied
,,Grangemouth,,,,,,,,,,,,,,,,,,,,,,,
Date,time,"Carbon monoxide",status,unit,"PM10 particulate matter (Hourly measured)",status,unit,"Nitric oxide",status,unit,"Nitrogen dioxide",status,unit,"Nitrogen oxides as nitrogen dioxide",status,unit,"Sulphur dioxide",status,unit
 
01-01-2005,01:00,0.2,R,mgm-3,16,R,ugm-3 (GRAV EQ),0,R,ugm-3,6,R,ugm-3,6,R,ugm-3,0,R,ugm-3
01-01-2005,02:00,0.3,R,mgm-3,13,R,ugm-3 (GRAV EQ),0,R,ugm-3,6,R,ugm-3,6,R,ugm-3,0,R,ugm-3
01-01-2005,03:00,0.3,R,mgm-3,16,R,ugm-3 (GRAV EQ),0,R,ugm-3,4,R,ugm-3,4,R,ugm-3,0,R,ugm-3
01-01-2005,04:00,0.3,R,mgm-3,10,R,ugm-3 (GRAV EQ),0,R,ugm-3,2,R,ugm-3,2,R,ugm-3,0,R,ugm-3
01-01-2005,05:00,0.3,R,mgm-3,16,R,ugm-3 (GRAV EQ),0,R,ugm-3,4,R,ugm-3,4,R,ugm-3,0,R,ugm-3
01-01-2005,06:00,0.2,R,mgm-3,16,R,ugm-3 (GRAV EQ),0,R,ugm-3,2,R,ugm-3,2,R,ugm-3,0,R,ugm-3
01-01-2005,07:00,0.2,R,mgm-3,14,R,ugm-3 (GRAV EQ),0,R,ugm-3,2,R,ugm-3,2,R,ugm-3,0,R,ugm-3
01-01-2005,08:00,0.3,R,mgm-3,14,R,ugm-3 (GRAV EQ),0,R,ugm-3,4,R,ugm-3,4,R,ugm-3,0,R,ugm-3
01-01-2005,09:00,0.3,R,mgm-3,12,R,ugm-3 (GRAV EQ),0,R,ugm-3,2,R,ugm-3,2,R,ugm-3,0,R,ugm-3
01-01-2005,10:00,0.3,R,mgm-3,,,,0,R,ugm-3,2,R,ugm-3,2,R,ugm-3,0,R,ugm-3
01-01-2005,11:00,0.3,R,mgm-3,7,R,ugm-3 (GRAV EQ),0,R,ugm-3,2,R,ugm-3,2,R,ugm-3,0,R,ugm-3
01-01-2005,12:00,0.3,R,mgm-3,3,R,ugm-3 (GRAV EQ),0,R,ugm-3,2,R,ugm-3,2,R,ugm-3,0,R,ugm-3
01-01-2005,13:00,0.3,R,mgm-3,7,R,ugm-3 (GRAV EQ),0,R,ugm-3,2,R,ugm-3,2,R,ugm-3,0,R,ugm-3
01-01-2005,14:00,0.3,R,mgm-3,1,R,ugm-3 (GRAV EQ),0,R,ugm-3,2,R,ugm-3,2,R,ugm-3,0,R,ugm-3
01-01-2005,15:00,0.3,R,mgm-3,5,R,ugm-3 (GRAV EQ),0,R,ugm-3,6,R,ugm-3,6,R,ugm-3,0,R,ugm-3
01-01-2005,16:00,0.3,R,mgm-3,1,R,ugm-3 (GRAV EQ),0,R,ugm-3,8,R,ugm-3,8,R,ugm-3,0,R,ugm-3
01-01-2005,17:00,0.3,R,mgm-3,8,R,ugm-3 (GRAV EQ),0,R,ugm-3,10,R,ugm-3,10,R,ugm-3,0,R,ugm-3
01-01-2005,18:00,0.3,R,mgm-3,8,R,ugm-3 (GRAV EQ),1,R,ugm-3,6,R,ugm-3,8,R,ugm-3,0,R,ugm-3
01-01-2005,19:00,0.3,R,mgm-3,10,R,ugm-3 (GRAV EQ),0,R,ugm-3,8,R,ugm-3,8,R,ugm-3,0,R,ugm-3
01-01-2005,20:00,0.3,R,mgm-3,10,R,ugm-3 (GRAV EQ),0,R,ugm-3,8,R,ugm-3,8,R,ugm-3,0,R,ugm-3
01-01-2005,21:00,0.2,R,mgm-3,8,R,ugm-3 (GRAV EQ),0,R,ugm-3,4,R,ugm-3,4,R,ugm-3,0,R,ugm-3
01-01-2005,22:00,0.2,R,mgm-3,9,R,ugm-3 (GRAV EQ),0,R,ugm-3,4,R,ugm-3,4,R,ugm-3,0,R,ugm-3
01-01-2005,23:00,0.2,R,mgm-3,9,R,ugm-3 (GRAV EQ),1,R,ugm-3,4,R,ugm-3,6,R,ugm-3,0,R,ugm-3
01-01-2005,24:00,0.1,R,mgm-3,12,R,ugm-3 (GRAV EQ),0,R,ugm-3,2,R,ugm-3,2,R,ugm-3,0,R,ugm-3
02-01-2005,01:00,0.2,R,mgm-3,10,R,ugm-3 (GRAV EQ),0,R,ugm-3,2,R,ugm-3,2,R,ugm-3,3,R,ugm-3
02-01-2005,02:00,0.1,R,mgm-3,10,R,ugm-3 (GRAV EQ),0,R,ugm-3,2,R,ugm-3,2,R,ugm-3,0,R,ugm-3
02-01-2005,03:00,0.1,R,mgm-3,8,R,ugm-3 (GRAV EQ),0,R,ugm-3,0,R,ugm-3,0,R,ugm-3,3,R,ugm-3
02-01-2005,04:00,0.1,R,mgm-3,10,R,ugm-3 (GRAV EQ),0,R,ugm-3,2,R,ugm-3,2,R,ugm-3,3,R,ugm-3
02-01-2005,05:00,0.1,R,mgm-3,12,R,ugm-3 (GRAV EQ),0,R,ugm-3,2,R,ugm-3,2,R,ugm-3,3,R,ugm-3
02-01-2005,06:00,0.1,R,mgm-3,12,R,ugm-3 (GRAV EQ),0,R,ugm-3,2,R,ugm-3,2,R,ugm-3,3,R,ugm-3
02-01-2005,07:00,0.1,R,mgm-3,12,R,ugm-3 (GRAV EQ),1,R,ugm-3,2,R,ugm-3,4,R,ugm-3,3,R,ugm-3
02-01-2005,08:00,0.1,R,mgm-3,8,R,ugm-3 (GRAV EQ),0,R,ugm-3,6,R,ugm-3,6,R,ugm-3,3,R,ugm-3
02-01-2005,09:00,0.1,R,mgm-3,9,R,ugm-3 (GRAV EQ),0,R,ugm-3,6,R,ugm-3,6,R,ugm-3,3,R,ugm-3
02-01-2005,10:00,0.1,R,mgm-3,7,R,ugm-3 (GRAV EQ),1,R,ugm-3,2,R,ugm-3,4,R,ugm-3,3,R,ugm-3
02-01-2005,11:00,0.2,R,mgm-3,8,R,ugm-3 (GRAV EQ),1,R,ugm-3,4,R,ugm-3,6,R,ugm-3,3,R,ugm-3
02-01-2005,12:00,0.2,R,mgm-3,7,R,ugm-3 (GRAV EQ),1,R,ugm-3,4,R,ugm-3,6,R,ugm-3,3,R,ugm-3
02-01-2005,13:00,0.2,R,mgm-3,8,R,ugm-3 (GRAV EQ),1,R,ugm-3,6,R,ugm-3,8,R,ugm-3,3,R,ugm-3
02-01-2005,14:00,0.2,R,mgm-3,8,R,ugm-3 (GRAV EQ),1,R,ugm-3,6,R,ugm-3,8,R,ugm-3,3,R,ugm-3
02-01-2005,15:00,0.2,R,mgm-3,10,R,ugm-3 (GRAV EQ),1,R,ugm-3,8,R,ugm-3,10,R,ugm-3,3,R,ugm-3
02-01-2005,16:00,0.2,R,mgm-3,13,R,ugm-3 (GRAV EQ),1,R,ugm-3,13,R,ugm-3,15,R,ugm-3,3,R,ugm-3
02-01-2005,17:00,0.2,R,mgm-3,10,R,ugm-3 (GRAV EQ),1,R,ugm-3,10,R,ugm-3,11,R,ugm-3,3,R,ugm-3
02-01-2005,18:00,0.2,R,mgm-3,16,R,ugm-3 (GRAV EQ),1,R,ugm-3,17,R,ugm-3,19,R,ugm-3,3,R,ugm-3
02-01-2005,19:00,0.2,R,mgm-3,13,R,ugm-3 (GRAV EQ),1,R,ugm-3,10,R,ugm-3,11,R,ugm-3,3,R,ugm-3
02-01-2005,20:00,0.2,R,mgm-3,16,R,ugm-3 (GRAV EQ),0,R,ugm-3,8,R,ugm-3,8,R,ugm-3,3,R,ugm-3
02-01-2005,21:00,0.2,R,mgm-3,13,R,ugm-3 (GRAV EQ),0,R,ugm-3,8,R,ugm-3,8,R,ugm-3,3,R,ugm-3
02-01-2005,22:00,0.2,R,mgm-3,10,R,ugm-3 (GRAV EQ),0,R,ugm-3,6,R,ugm-3,6,R,ugm-3,3,R,ugm-3
02-01-2005,23:00,0.2,R,mgm-3,9,R,ugm-3 (GRAV EQ),0,R,ugm-3,8,R,ugm-3,8,R,ugm-3,3,R,ugm-3
02-01-2005,24:00,0.2,R,mgm-3,9,R,ugm-3 (GRAV EQ),0,R,ugm-3,6,R,ugm-3,6,R,ugm-3,3,R,ugm-3
03-01-2005,01:00,0.1,R,mgm-3,12,R,ugm-3 (GRAV EQ),0,R,ugm-3,6,R,ugm-3,6,R,ugm-3,3,R,ugm-3
03-01-2005,02:00,0.1,R,mgm-3,13,R,ugm-3 (GRAV EQ),0,R,ugm-3,2,R,ugm-3,2,R,ugm-3,3,R,ugm-3
03-01-2005,03:00,0.2,R,mgm-3,14,R,ugm-3 (GRAV EQ),1,R,ugm-3,0,R,ugm-3,2,R,ugm-3,3,R,ugm-3
03-01-2005,04:00,0.2,R,mgm-3,13,R,ugm-3 (GRAV EQ),0,R,ugm-3,2,R,ugm-3,2,R,ugm-3,3,R,ugm-3
03-01-2005,05:00,0.1,R,mgm-3,12,R,ugm-3 (GRAV EQ),0,R,ugm-3,0,R,ugm-3,0,R,ugm-3,3,R,ugm-3
03-01-2005,06:00,0.2,R,mgm-3,13,R,ugm-3 (GRAV EQ),1,R,ugm-3,2,R,ugm-3,4,R,ugm-3,3,R,ugm-3
03-01-2005,07:00,0.2,R,mgm-3,16,R,ugm-3 (GRAV EQ),0,R,ugm-3,4,R,ugm-3,4,R,ugm-3,3,R,ugm-3
03-01-2005,08:00,0.2,R,mgm-3,22,R,ugm-3 (GRAV EQ),0,R,ugm-3,4,R,ugm-3,4,R,ugm-3,3,R,ugm-3
03-01-2005,09:00,0.2,R,mgm-3,20,R,ugm-3 (GRAV EQ),0,R,ugm-3,4,R,ugm-3,4,R,ugm-3,3,R,ugm-3
03-01-2005,10:00,0.2,R,mgm-3,10,R,ugm-3 (GRAV EQ),0,R,ugm-3,4,R,ugm-3,4,R,ugm-3,3,R,ugm-3
03-01-2005,11:00,0.2,R,mgm-3,7,R,ugm-3 (GRAV EQ),0,R,ugm-3,4,R,ugm-3,4,R,ugm-3,3,R,ugm-3
03-01-2005,12:00,0.2,R,mgm-3,9,R,ugm-3 (GRAV EQ),1,R,ugm-3,6,R,ugm-3,8,R,ugm-3,3,R,ugm-3
03-01-2005,13:00,0.2,R,mgm-3,12,R,ugm-3 (GRAV EQ),0,R,ugm-3,4,R,ugm-3,4,R,ugm-3,3,R,ugm-3
03-01-2005,14:00,0.2,R,mgm-3,13,R,ugm-3 (GRAV EQ),0,R,ugm-3,4,R,ugm-3,4,R,ugm-3,3,R,ugm-3
03-01-2005,15:00,0.2,R,mgm-3,16,R,ugm-3 (GRAV EQ),0,R,ugm-3,4,R,ugm-3,4,R,ugm-3,3,R,ugm-3
03-01-2005,16:00,0.2,R,mgm-3,17,R,ugm-3 (GRAV EQ),0,R,ugm-3,4,R,ugm-3,4,R,ugm-3,3,R,ugm-3
03-01-2005,17:00,0.1,R,mgm-3,13,R,ugm-3 (GRAV EQ),0,R,ugm-3,4,R,ugm-3,4,R,ugm-3,3,R,ugm-3
03-01-2005,18:00,0.1,R,mgm-3,16,R,ugm-3 (GRAV EQ),0,R,ugm-3,4,R,ugm-3,4,R,ugm-3,3,R,ugm-3
03-01-2005,19:00,0.1,R,mgm-3,10,R,ugm-3 (GRAV EQ),0,R,ugm-3,4,R,ugm-3,4,R,ugm-3,3,R,ugm-3
03-01-2005,20:00,0.1,R,mgm-3,9,R,ugm-3 (GRAV EQ),0,R,ugm-3,2,R,ugm-3,2,R,ugm-3,3,R,ugm-3
03-01-2005,21:00,0.1,R,mgm-3,13,R,ugm-3 (GRAV EQ),0,R,ugm-3,2,R,ugm-3,2,R,ugm-3,3,R,ugm-3
03-01-2005,22:00,0.1,R,mgm-3,14,R,ugm-3 (GRAV EQ),0,R,ugm-3,0,R,ugm-3,0,R,ugm-3,3,R,ugm-3
03-01-2005,23:00,0.1,R,mgm-3,13,R,ugm-3 (GRAV EQ),0,R,ugm-3,0,R,ugm-3,0,R,ugm-3,3,R,ugm-3
03-01-2005,24:00,0.1,R,mgm-3,10,R,ugm-3 (GRAV EQ),0,R,ugm-3,0,R,ugm-3,0,R,ugm-3,3,R,ugm-3
04-01-2005,01:00,0.2,R,mgm-3,12,R,ugm-3 (GRAV EQ),1,R,ugm-3,2,R,ugm-3,4,R,ugm-3,0,R,ugm-3
04-01-2005,02:00,0.3,R,mgm-3,10,R,ugm-3 (GRAV EQ),1,R,ugm-3,2,R,ugm-3,4,R,ugm-3,3,R,ugm-3
04-01-2005,03:00,0.3,R,mgm-3,8,R,ugm-3 (GRAV EQ),1,R,ugm-3,0,R,ugm-3,2,R,ugm-3,0,R,ugm-3
04-01-2005,04:00,0.3,R,mgm-3,8,R,ugm-3 (GRAV EQ),1,R,ugm-3,0,R,ugm-3,2,R,ugm-3,0,R,ugm-3
04-01-2005,05:00,0.3,R,mgm-3,4,R,ugm-3 (GRAV EQ),1,R,ugm-3,2,R,ugm-3,4,R,ugm-3,3,R,ugm-3
04-01-2005,06:00,0.2,R,mgm-3,8,R,ugm-3 (GRAV EQ),1,R,ugm-3,2,R,ugm-3,4,R,ugm-3,0,R,ugm-3
04-01-2005,07:00,0.2,R,mgm-3,9,R,ugm-3 (GRAV EQ),1,R,ugm-3,2,R,ugm-3,4,R,ugm-3,0,R,ugm-3
04-01-2005,08:00,0.2,R,mgm-3,9,R,ugm-3 (GRAV EQ),1,R,ugm-3,4,R,ugm-3,6,R,ugm-3,3,R,ugm-3
04-01-2005,09:00,0.3,R,mgm-3,10,R,ugm-3 (GRAV EQ),3,R,ugm-3,6,R,ugm-3,10,R,ugm-3,3,R,ugm-3
04-01-2005,10:00,0.3,R,mgm-3,10,R,ugm-3 (GRAV EQ),3,R,ugm-3,6,R,ugm-3,10,R,ugm-3,3,R,ugm-3
04-01-2005,11:00,0.3,R,mgm-3,12,R,ugm-3 (GRAV EQ),1,R,ugm-3,8,R,ugm-3,10,R,ugm-3,3,R,ugm-3
04-01-2005,12:00,0.3,R,mgm-3,14,R,ugm-3 (GRAV EQ),3,R,ugm-3,8,R,ugm-3,11,R,ugm-3,0,R,ugm-3
04-01-2005,13:00,0.3,R,mgm-3,23,R,ugm-3 (GRAV EQ),3,R,ugm-3,10,R,ugm-3,13,R,ugm-3,3,R,ugm-3
04-01-2005,14:00,0.5,R,mgm-3,25,R,ugm-3 (GRAV EQ),3,R,ugm-3,6,R,ugm-3,10,R,ugm-3,0,R,ugm-3
04-01-2005,15:00,0.3,R,mgm-3,16,R,ugm-3 (GRAV EQ),3,R,ugm-3,10,R,ugm-3,13,R,ugm-3,3,R,ugm-3
04-01-2005,16:00,0.3,R,mgm-3,16,R,ugm-3 (GRAV EQ),3,R,ugm-3,11,R,ugm-3,15,R,ugm-3,0,R,ugm-3
04-01-2005,17:00,0.3,R,mgm-3,17,R,ugm-3 (GRAV EQ),3,R,ugm-3,15,R,ugm-3,19,R,ugm-3,3,R,ugm-3
04-01-2005,18:00,0.3,R,mgm-3,12,R,ugm-3 (GRAV EQ),3,R,ugm-3,11,R,ugm-3,15,R,ugm-3,3,R,ugm-3
04-01-2005,19:00,0.2,R,mgm-3,12,R,ugm-3 (GRAV EQ),1,R,ugm-3,8,R,ugm-3,10,R,ugm-3,3,R,ugm-3
04-01-2005,20:00,0.2,R,mgm-3,14,R,ugm-3 (GRAV EQ),1,R,ugm-3,8,R,ugm-3,10,R,ugm-3,3,R,ugm-3
04-01-2005,21:00,0.2,R,mgm-3,13,R,ugm-3 (GRAV EQ),1,R,ugm-3,6,R,ugm-3,8,R,ugm-3,3,R,ugm-3
04-01-2005,22:00,0.2,R,mgm-3,16,R,ugm-3 (GRAV EQ),1,R,ugm-3,6,R,ugm-3,8,R,ugm-3,3,R,ugm-3
04-01-2005,23:00,0.2,R,mgm-3,16,R,ugm-3 (GRAV EQ),1,R,ugm-3,4,R,ugm-3,6,R,ugm-3,3,R,ugm-3
04-01-2005,24:00,0.3,R,mgm-3,16,R,ugm-3 (GRAV EQ),1,R,ugm-3,4,R,ugm-3,6,R,ugm-3,3,R,ugm-3
05-01-2005,01:00,0.2,R,mgm-3,18,R,ugm-3 (GRAV EQ),0,R,ugm-3,2,R,ugm-3,2,R,ugm-3,3,R,ugm-3
05-01-2005,02:00,0.2,R,mgm-3,18,R,ugm-3 (GRAV EQ),0,R,ugm-3,2,R,ugm-3,2,R,ugm-3,3,R,ugm-3
05-01-2005,03:00,0.2,R,mgm-3,17,R,ugm-3 (GRAV EQ),0,R,ugm-3,2,R,ugm-3,2,R,ugm-3,3,R,ugm-3
05-01-2005,04:00,0.2,R,mgm-3,17,R,ugm-3 (GRAV EQ),0,R,ugm-3,2,R,ugm-3,2,R,ugm-3,3,R,ugm-3
05-01-2005,05:00,0.2,R,mgm-3,16,R,ugm-3 (GRAV EQ),0,R,ugm-3,2,R,ugm-3,2,R,ugm-3,3,R,ugm-3
05-01-2005,06:00,0.2,R,mgm-3,14,R,ugm-3 (GRAV EQ),0,R,ugm-3,2,R,ugm-3,2,R,ugm-3,3,R,ugm-3
05-01-2005,07:00,0.2,R,mgm-3,13,R,ugm-3 (GRAV EQ),0,R,ugm-3,4,R,ugm-3,4,R,ugm-3,3,R,ugm-3
05-01-2005,08:00,0.2,R,mgm-3,9,R,ugm-3 (GRAV EQ),0,R,ugm-3,6,R,ugm-3,6,R,ugm-3,3,R,ugm-3
05-01-2005,09:00,0.2,R,mgm-3,9,R,ugm-3 (GRAV EQ),0,R,ugm-3,6,R,ugm-3,6,R,ugm-3,3,R,ugm-3
05-01-2005,10:00,0.2,R,mgm-3,8,R,ugm-3 (GRAV EQ),0,R,ugm-3,6,R,ugm-3,6,R,ugm-3,3,R,ugm-3
05-01-2005,11:00,0.2,R,mgm-3,8,R,ugm-3 (GRAV EQ),0,R,ugm-3,6,R,ugm-3,6,R,ugm-3,3,R,ugm-3
05-01-2005,12:00,0.2,R,mgm-3,5,R,ugm-3 (GRAV EQ),0,R,ugm-3,6,R,ugm-3,6,R,ugm-3,3,R,ugm-3
05-01-2005,13:00,0.2,R,mgm-3,9,R,ugm-3 (GRAV EQ),0,R,ugm-3,6,R,ugm-3,6,R,ugm-3,3,R,ugm-3
05-01-2005,14:00,0.2,R,mgm-3,8,R,ugm-3 (GRAV EQ),0,R,ugm-3,4,R,ugm-3,4,R,ugm-3,3,R,ugm-3
05-01-2005,15:00,0.3,R,mgm-3,14,R,ugm-3 (GRAV EQ),1,R,ugm-3,8,R,ugm-3,10,R,ugm-3,3,R,ugm-3
05-01-2005,16:00,0.2,R,mgm-3,14,R,ugm-3 (GRAV EQ),1,R,ugm-3,11,R,ugm-3,13,R,ugm-3,3,R,ugm-3
05-01-2005,17:00,0.3,R,mgm-3,20,R,ugm-3 (GRAV EQ),1,R,ugm-3,15,R,ugm-3,17,R,ugm-3,3,R,ugm-3
05-01-2005,18:00,0.3,R,mgm-3,14,R,ugm-3 (GRAV EQ),1,R,ugm-3,17,R,ugm-3,19,R,ugm-3,3,R,ugm-3
05-01-2005,19:00,0.2,R,mgm-3,10,R,ugm-3 (GRAV EQ),1,R,ugm-3,11,R,ugm-3,13,R,ugm-3,3,R,ugm-3
05-01-2005,20:00,0.3,R,mgm-3,18,R,ugm-3 (GRAV EQ),1,R,ugm-3,17,R,ugm-3,19,R,ugm-3,3,R,ugm-3
05-01-2005,21:00,0.2,R,mgm-3,13,R,ugm-3 (GRAV EQ),0,R,ugm-3,8,R,ugm-3,8,R,ugm-3,3,R,ugm-3
05-01-2005,22:00,0.2,R,mgm-3,13,R,ugm-3 (GRAV EQ),0,R,ugm-3,8,R,ugm-3,8,R,ugm-3,3,R,ugm-3
05-01-2005,23:00,0.2,R,mgm-3,17,R,ugm-3 (GRAV EQ),1,R,ugm-3,8,R,ugm-3,10,R,ugm-3,3,R,ugm-3
05-01-2005,24:00,0.2,R,mgm-3,20,R,ugm-3 (GRAV EQ),0,R,ugm-3,8,R,ugm-3,8,R,ugm-3,3,R,ugm-3
06-01-2005,01:00,0.1,R,mgm-3,16,R,ugm-3 (GRAV EQ),0,R,ugm-3,10,R,ugm-3,10,R,ugm-3,0,R,ugm-3
06-01-2005,02:00,0.1,R,mgm-3,18,R,ugm-3 (GRAV EQ),0,R,ugm-3,4,R,ugm-3,4,R,ugm-3,0,R,ugm-3
06-01-2005,03:00,0.1,R,mgm-3,16,R,ugm-3 (GRAV EQ),0,R,ugm-3,4,R,ugm-3,4,R,ugm-3,0,R,ugm-3
06-01-2005,04:00,0.1,R,mgm-3,14,R,ugm-3 (GRAV EQ),0,R,ugm-3,4,R,ugm-3,4,R,ugm-3,0,R,ugm-3
06-01-2005,05:00,0.1,R,mgm-3,13,R,ugm-3 (GRAV EQ),0,R,ugm-3,6,R,ugm-3,6,R,ugm-3,0,R,ugm-3
06-01-2005,06:00,0.1,R,mgm-3,17,R,ugm-3 (GRAV EQ),0,R,ugm-3,6,R,ugm-3,6,R,ugm-3,0,R,ugm-3
06-01-2005,07:00,0.1,R,mgm-3,18,R,ugm-3 (GRAV EQ),0,R,ugm-3,6,R,ugm-3,6,R,ugm-3,0,R,ugm-3
06-01-2005,08:00,0.1,R,mgm-3,16,R,ugm-3 (GRAV EQ),0,R,ugm-3,11,R,ugm-3,11,R,ugm-3,0,R,ugm-3
06-01-2005,09:00,0.1,R,mgm-3,17,R,ugm-3 (GRAV EQ),1,R,ugm-3,11,R,ugm-3,13,R,ugm-3,3,R,ugm-3
06-01-2005,10:00,0.1,R,mgm-3,9,R,ugm-3 (GRAV EQ),1,R,ugm-3,6,R,ugm-3,8,R,ugm-3,0,R,ugm-3
06-01-2005,11:00,0.1,R,mgm-3,13,R,ugm-3 (GRAV EQ),0,R,ugm-3,4,R,ugm-3,4,R,ugm-3,0,R,ugm-3
06-01-2005,12:00,0.1,R,mgm-3,12,R,ugm-3 (GRAV EQ),0,R,ugm-3,6,R,ugm-3,6,R,ugm-3,0,R,ugm-3
06-01-2005,13:00,0.1,R,mgm-3,8,R,ugm-3 (GRAV EQ),1,R,ugm-3,6,R,ugm-3,8,R,ugm-3,0,R,ugm-3
06-01-2005,14:00,0.2,R,mgm-3,8,R,ugm-3 (GRAV EQ),0,R,ugm-3,6,R,ugm-3,6,R,ugm-3,0,R,ugm-3
06-01-2005,15:00,0.2,R,mgm-3,9,R,ugm-3 (GRAV EQ),1,R,ugm-3,6,R,ugm-3,8,R,ugm-3,0,R,ugm-3
06-01-2005,16:00,0.2,R,mgm-3,8,R,ugm-3 (GRAV EQ),0,R,ugm-3,6,R,ugm-3,6,R,ugm-3,0,R,ugm-3
06-01-2005,17:00,0.1,R,mgm-3,7,R,ugm-3 (GRAV EQ),0,R,ugm-3,6,R,ugm-3,6,R,ugm-3,0,R,ugm-3
06-01-2005,18:00,0.2,R,mgm-3,7,R,ugm-3 (GRAV EQ),0,R,ugm-3,6,R,ugm-3,6,R,ugm-3,0,R,ugm-3
06-01-2005,19:00,0.2,R,mgm-3,8,R,ugm-3 (GRAV EQ),0,R,ugm-3,6,R,ugm-3,6,R,ugm-3,0,R,ugm-3
06-01-2005,20:00,0.2,R,mgm-3,8,R,ugm-3 (GRAV EQ),1,R,ugm-3,4,R,ugm-3,6,R,ugm-3,0,R,ugm-3
06-01-2005,21:00,0.2,R,mgm-3,5,R,ugm-3 (GRAV EQ),0,R,ugm-3,4,R,ugm-3,4,R,ugm-3,0,R,ugm-3
06-01-2005,22:00,0.2,R,mgm-3,5,R,ugm-3 (GRAV EQ),0,R,ugm-3,4,R,ugm-3,4,R,ugm-3,0,R,ugm-3
06-01-2005,23:00,0.2,R,mgm-3,7,R,ugm-3 (GRAV EQ),0,R,ugm-3,2,R,ugm-3,2,R,ugm-3,0,R,ugm-3
06-01-2005,24:00,0.2,R,mgm-3,7,R,ugm-3 (GRAV EQ),0,R,ugm-3,2,R,ugm-3,2,R,ugm-3,0,R,ugm-3
07-01-2005,01:00,0.2,R,mgm-3,7,R,ugm-3 (GRAV EQ),1,R,ugm-3,2,R,ugm-3,4,R,ugm-3,0,R,ugm-3
07-01-2005,02:00,0.2,R,mgm-3,5,R,ugm-3 (GRAV EQ),1,R,ugm-3,0,R,ugm-3,2,R,ugm-3,3,R,ugm-3
07-01-2005,03:00,0.2,R,mgm-3,7,R,ugm-3 (GRAV EQ),1,R,ugm-3,2,R,ugm-3,4,R,ugm-3,3,R,ugm-3
07-01-2005,04:00,0.2,R,mgm-3,4,R,ugm-3 (GRAV EQ),1,R,ugm-3,2,R,ugm-3,4,R,ugm-3,0,R,ugm-3
07-01-2005,05:00,0.2,R,mgm-3,4,R,ugm-3 (GRAV EQ),1,R,ugm-3,2,R,ugm-3,4,R,ugm-3,3,R,ugm-3
07-01-2005,06:00,0.2,R,mgm-3,5,R,ugm-3 (GRAV EQ),1,R,ugm-3,2,R,ugm-3,4,R,ugm-3,3,R,ugm-3
07-01-2005,07:00,0.2,R,mgm-3,7,R,ugm-3 (GRAV EQ),1,R,ugm-3,4,R,ugm-3,6,R,ugm-3,3,R,ugm-3
07-01-2005,08:00,0.2,R,mgm-3,7,R,ugm-3 (GRAV EQ),1,R,ugm-3,10,R,ugm-3,11,R,ugm-3,3,R,ugm-3
07-01-2005,09:00,0.3,R,mgm-3,9,R,ugm-3 (GRAV EQ),3,R,ugm-3,15,R,ugm-3,19,R,ugm-3,3,R,ugm-3
07-01-2005,10:00,0.2,R,mgm-3,12,R,ugm-3 (GRAV EQ),1,R,ugm-3,13,R,ugm-3,15,R,ugm-3,3,R,ugm-3
07-01-2005,11:00,0.2,R,mgm-3,10,R,ugm-3 (GRAV EQ),3,R,ugm-3,11,R,ugm-3,15,R,ugm-3,3,R,ugm-3
07-01-2005,12:00,,,,13,R,ugm-3 (GRAV EQ),,,,,,,,,,,,
07-01-2005,13:00,0.2,R,mgm-3,14,R,ugm-3 (GRAV EQ),3,R,ugm-3,11,R,ugm-3,15,R,ugm-3,3,R,ugm-3
07-01-2005,14:00,0.2,R,mgm-3,16,R,ugm-3 (GRAV EQ),4,R,ugm-3,11,R,ugm-3,17,R,ugm-3,3,R,ugm-3
07-01-2005,15:00,0.2,R,mgm-3,16,R,ugm-3 (GRAV EQ),3,R,ugm-3,13,R,ugm-3,17,R,ugm-3,3,R,ugm-3
07-01-2005,16:00,0.2,R,mgm-3,13,R,ugm-3 (GRAV EQ),1,R,ugm-3,13,R,ugm-3,15,R,ugm-3,3,R,ugm-3
07-01-2005,17:00,0.2,R,mgm-3,8,R,ugm-3 (GRAV EQ),3,R,ugm-3,13,R,ugm-3,17,R,ugm-3,3,R,ugm-3
07-01-2005,18:00,0.2,R,mgm-3,7,R,ugm-3 (GRAV EQ),1,R,ugm-3,13,R,ugm-3,15,R,ugm-3,3,R,ugm-3
07-01-2005,19:00,0.2,R,mgm-3,5,R,ugm-3 (GRAV EQ),1,R,ugm-3,11,R,ugm-3,13,R,ugm-3,3,R,ugm-3
07-01-2005,20:00,0.2,R,mgm-3,3,R,ugm-3 (GRAV EQ),1,R,ugm-3,11,R,ugm-3,13,R,ugm-3,3,R,ugm-3
07-01-2005,21:00,0.2,R,mgm-3,1,R,ugm-3 (GRAV EQ),1,R,ugm-3,10,R,ugm-3,11,R,ugm-3,3,R,ugm-3
07-01-2005,22:00,0.2,R,mgm-3,1,R,ugm-3 (GRAV EQ),1,R,ugm-3,13,R,ugm-3,15,R,ugm-3,3,R,ugm-3
07-01-2005,23:00,0.2,R,mgm-3,-1,R,ugm-3 (GRAV EQ),1,R,ugm-3,11,R,ugm-3,13,R,ugm-3,3,R,ugm-3
07-01-2005,24:00,0.2,R,mgm-3,1,R,ugm-3 (GRAV EQ),3,R,ugm-3,17,R,ugm-3,21,R,ugm-3,5,R,ugm-3
08-01-2005,01:00,0.5,R,mgm-3,-3,R,ugm-3 (GRAV EQ),0,R,ugm-3,8,R,ugm-3,8,R,ugm-3,5,R,ugm-3
08-01-2005,02:00,0.5,R,mgm-3,-1,R,ugm-3 (GRAV EQ),3,R,ugm-3,21,R,ugm-3,25,R,ugm-3,5,R,ugm-3
08-01-2005,03:00,0.5,R,mgm-3,1,R,ugm-3 (GRAV EQ),1,R,ugm-3,15,R,ugm-3,17,R,ugm-3,19,R,ugm-3
08-01-2005,04:00,0.5,R,mgm-3,-1,R,ugm-3 (GRAV EQ),0,R,ugm-3,13,R,ugm-3,13,R,ugm-3,5,R,ugm-3
08-01-2005,05:00,0.5,R,mgm-3,1,R,ugm-3 (GRAV EQ),0,R,ugm-3,13,R,ugm-3,13,R,ugm-3,3,R,ugm-3
08-01-2005,06:00,0.5,R,mgm-3,0,R,ugm-3 (GRAV EQ),0,R,ugm-3,2,R,ugm-3,2,R,ugm-3,3,R,ugm-3
08-01-2005,07:00,0.3,R,mgm-3,4,R,ugm-3 (GRAV EQ),0,R,ugm-3,2,R,ugm-3,2,R,ugm-3,0,R,ugm-3
08-01-2005,08:00,0.3,R,mgm-3,20,R,ugm-3 (GRAV EQ),0,R,ugm-3,2,R,ugm-3,2,R,ugm-3,8,R,ugm-3
08-01-2005,09:00,0.3,R,mgm-3,13,R,ugm-3 (GRAV EQ),0,R,ugm-3,6,R,ugm-3,6,R,ugm-3,11,R,ugm-3
08-01-2005,10:00,0.3,R,mgm-3,14,R,ugm-3 (GRAV EQ),0,R,ugm-3,8,R,ugm-3,8,R,ugm-3,3,R,ugm-3
08-01-2005,11:00,0.5,R,mgm-3,10,R,ugm-3 (GRAV EQ),1,R,ugm-3,8,R,ugm-3,10,R,ugm-3,3,R,ugm-3
08-01-2005,12:00,0.5,R,mgm-3,9,R,ugm-3 (GRAV EQ),1,R,ugm-3,8,R,ugm-3,10,R,ugm-3,3,R,ugm-3
08-01-2005,13:00,0.5,R,mgm-3,17,R,ugm-3 (GRAV EQ),1,R,ugm-3,8,R,ugm-3,10,R,ugm-3,3,R,ugm-3
08-01-2005,14:00,0.5,R,mgm-3,14,R,ugm-3 (GRAV EQ),1,R,ugm-3,8,R,ugm-3,10,R,ugm-3,3,R,ugm-3
08-01-2005,15:00,0.5,R,mgm-3,14,R,ugm-3 (GRAV EQ),0,R,ugm-3,6,R,ugm-3,6,R,ugm-3,3,R,ugm-3
08-01-2005,16:00,0.3,R,mgm-3,13,R,ugm-3 (GRAV EQ),0,R,ugm-3,6,R,ugm-3,6,R,ugm-3,3,R,ugm-3
08-01-2005,17:00,0.3,R,mgm-3,8,R,ugm-3 (GRAV EQ),1,R,ugm-3,8,R,ugm-3,10,R,ugm-3,3,R,ugm-3
08-01-2005,18:00,0.2,R,mgm-3,13,R,ugm-3 (GRAV EQ),0,R,ugm-3,6,R,ugm-3,6,R,ugm-3,3,R,ugm-3
08-01-2005,19:00,0.2,R,mgm-3,18,R,ugm-3 (GRAV EQ),0,R,ugm-3,2,R,ugm-3,2,R,ugm-3,0,R,ugm-3
08-01-2005,20:00,0.3,R,mgm-3,12,R,ugm-3 (GRAV EQ),1,R,ugm-3,4,R,ugm-3,6,R,ugm-3,3,R,ugm-3
08-01-2005,21:00,0.2,R,mgm-3,5,R,ugm-3 (GRAV EQ),1,R,ugm-3,4,R,ugm-3,6,R,ugm-3,0,R,ugm-3
08-01-2005,22:00,0.2,R,mgm-3,5,R,ugm-3 (GRAV EQ),0,R,ugm-3,4,R,ugm-3,4,R,ugm-3,0,R,ugm-3
08-01-2005,23:00,0.1,R,mgm-3,5,R,ugm-3 (GRAV EQ),0,R,ugm-3,2,R,ugm-3,2,R,ugm-3,0,R,ugm-3
08-01-2005,24:00,0.3,R,mgm-3,5,R,ugm-3 (GRAV EQ),0,R,ugm-3,2,R,ugm-3,2,R,ugm-3,0,R,ugm-3
09-01-2005,01:00,0.3,R,mgm-3,8,R,ugm-3 (GRAV EQ),0,R,ugm-3,2,R,ugm-3,2,R,ugm-3,0,R,ugm-3
09-01-2005,02:00,0.3,R,mgm-3,5,R,ugm-3 (GRAV EQ),0,R,ugm-3,2,R,ugm-3,2,R,ugm-3,0,R,ugm-3
09-01-2005,03:00,0.3,R,mgm-3,10,R,ugm-3 (GRAV EQ),0,R,ugm-3,2,R,ugm-3,2,R,ugm-3,0,R,ugm-3
09-01-2005,04:00,0.1,R,mgm-3,16,R,ugm-3 (GRAV EQ),0,R,ugm-3,2,R,ugm-3,2,R,ugm-3,0,R,ugm-3
09-01-2005,05:00,0.2,R,mgm-3,20,R,ugm-3 (GRAV EQ),0,R,ugm-3,4,R,ugm-3,4,R,ugm-3,0,R,ugm-3
09-01-2005,06:00,0.2,R,mgm-3,12,R,ugm-3 (GRAV EQ),0,R,ugm-3,6,R,ugm-3,6,R,ugm-3,0,R,ugm-3
09-01-2005,07:00,0.2,R,mgm-3,8,R,ugm-3 (GRAV EQ),0,R,ugm-3,4,R,ugm-3,4,R,ugm-3,0,R,ugm-3
09-01-2005,08:00,0.1,R,mgm-3,5,R,ugm-3 (GRAV EQ),0,R,ugm-3,6,R,ugm-3,6,R,ugm-3,0,R,ugm-3
09-01-2005,09:00,0.2,R,mgm-3,8,R,ugm-3 (GRAV EQ),0,R,ugm-3,6,R,ugm-3,6,R,ugm-3,0,R,ugm-3
09-01-2005,10:00,0.2,R,mgm-3,13,R,ugm-3 (GRAV EQ),0,R,ugm-3,4,R,ugm-3,4,R,ugm-3,0,R,ugm-3
09-01-2005,11:00,0.3,R,mgm-3,20,R,ugm-3 (GRAV EQ),0,R,ugm-3,4,R,ugm-3,4,R,ugm-3,0,R,ugm-3
09-01-2005,12:00,0.3,R,mgm-3,17,R,ugm-3 (GRAV EQ),0,R,ugm-3,2,R,ugm-3,2,R,ugm-3,0,R,ugm-3
09-01-2005,13:00,0.3,R,mgm-3,14,R,ugm-3 (GRAV EQ),0,R,ugm-3,4,R,ugm-3,4,R,ugm-3,0,R,ugm-3
09-01-2005,14:00,0.5,R,mgm-3,10,R,ugm-3 (GRAV EQ),0,R,ugm-3,2,R,ugm-3,2,R,ugm-3,0,R,ugm-3
09-01-2005,15:00,0.5,R,mgm-3,7,R,ugm-3 (GRAV EQ),0,R,ugm-3,2,R,ugm-3,2,R,ugm-3,0,R,ugm-3
09-01-2005,16:00,0.5,R,mgm-3,4,R,ugm-3 (GRAV EQ),0,R,ugm-3,4,R,ugm-3,4,R,ugm-3,0,R,ugm-3
09-01-2005,17:00,0.5,R,mgm-3,3,R,ugm-3 (GRAV EQ),0,R,ugm-3,4,R,ugm-3,4,R,ugm-3,0,R,ugm-3
09-01-2005,18:00,0.5,R,mgm-3,3,R,ugm-3 (GRAV EQ),0,R,ugm-3,4,R,ugm-3,4,R,ugm-3,0,R,ugm-3
09-01-2005,19:00,0.3,R,mgm-3,3,R,ugm-3 (GRAV EQ),0,R,ugm-3,4,R,ugm-3,4,R,ugm-3,0,R,ugm-3
09-01-2005,20:00,0.5,R,mgm-3,5,R,ugm-3 (GRAV EQ),0,R,ugm-3,4,R,ugm-3,4,R,ugm-3,0,R,ugm-3
09-01-2005,21:00,0.5,R,mgm-3,5,R,ugm-3 (GRAV EQ),0,R,ugm-3,2,R,ugm-3,2,R,ugm-3,0,R,ugm-3
09-01-2005,22:00,0.3,R,mgm-3,7,R,ugm-3 (GRAV EQ),0,R,ugm-3,2,R,ugm-3,2,R,ugm-3,0,R,ugm-3
09-01-2005,23:00,0.5,R,mgm-3,8,R,ugm-3 (GRAV EQ),0,R,ugm-3,2,R,ugm-3,2,R,ugm-3,0,R,ugm-3
09-01-2005,24:00,0.5,R,mgm-3,9,R,ugm-3 (GRAV EQ),0,R,ugm-3,2,R,ugm-3,2,R,ugm-3,0,R,ugm-3
10-01-2005,01:00,0.2,R,mgm-3,9,R,ugm-3 (GRAV EQ),0,R,ugm-3,2,R,ugm-3,2,R,ugm-3,0,R,ugm-3
10-01-2005,02:00,0.2,R,mgm-3,13,R,ugm-3 (GRAV EQ),0,R,ugm-3,0,R,ugm-3,0,R,ugm-3,0,R,ugm-3
10-01-2005,03:00,0.2,R,mgm-3,22,R,ugm-3 (GRAV EQ),0,R,ugm-3,2,R,ugm-3,2,R,ugm-3,0,R,ugm-3
10-01-2005,04:00,0.2,R,mgm-3,13,R,ugm-3 (GRAV EQ),0,R,ugm-3,0,R,ugm-3,0,R,ugm-3,0,R,ugm-3
10-01-2005,05:00,0.2,R,mgm-3,16,R,ugm-3 (GRAV EQ),0,R,ugm-3,2,R,ugm-3,2,R,ugm-3,0,R,ugm-3
10-01-2005,06:00,0.2,R,mgm-3,10,R,ugm-3 (GRAV EQ),0,R,ugm-3,2,R,ugm-3,2,R,ugm-3,0,R,ugm-3
10-01-2005,07:00,0.2,R,mgm-3,14,R,ugm-3 (GRAV EQ),0,R,ugm-3,4,R,ugm-3,4,R,ugm-3,3,R,ugm-3
10-01-2005,08:00,0.2,R,mgm-3,14,R,ugm-3 (GRAV EQ),1,R,ugm-3,6,R,ugm-3,8,R,ugm-3,0,R,ugm-3
10-01-2005,09:00,0.2,R,mgm-3,17,R,ugm-3 (GRAV EQ),1,R,ugm-3,11,R,ugm-3,13,R,ugm-3,3,R,ugm-3
10-01-2005,10:00,0.2,R,mgm-3,18,R,ugm-3 (GRAV EQ),1,R,ugm-3,11,R,ugm-3,13,R,ugm-3,0,R,ugm-3
10-01-2005,11:00,0.2,R,mgm-3,14,R,ugm-3 (GRAV EQ),1,R,ugm-3,11,R,ugm-3,13,R,ugm-3,0,R,ugm-3
10-01-2005,12:00,0.2,R,mgm-3,23,R,ugm-3 (GRAV EQ),1,R,ugm-3,8,R,ugm-3,10,R,ugm-3,0,R,ugm-3
10-01-2005,13:00,0.2,R,mgm-3,22,R,ugm-3 (GRAV EQ),1,R,ugm-3,10,R,ugm-3,11,R,ugm-3,0,R,ugm-3
10-01-2005,14:00,0.2,R,mgm-3,22,R,ugm-3 (GRAV EQ),1,R,ugm-3,15,R,ugm-3,17,R,ugm-3,0,R,ugm-3
10-01-2005,15:00,0.2,R,mgm-3,20,R,ugm-3 (GRAV EQ),1,R,ugm-3,11,R,ugm-3,13,R,ugm-3,0,R,ugm-3
10-01-2005,16:00,0.2,R,mgm-3,21,R,ugm-3 (GRAV EQ),1,R,ugm-3,15,R,ugm-3,17,R,ugm-3,3,R,ugm-3
10-01-2005,17:00,0.2,R,mgm-3,17,R,ugm-3 (GRAV EQ),0,R,ugm-3,15,R,ugm-3,15,R,ugm-3,0,R,ugm-3
10-01-2005,18:00,0.1,R,mgm-3,18,R,ugm-3 (GRAV EQ),0,R,ugm-3,13,R,ugm-3,13,R,ugm-3,0,R,ugm-3
10-01-2005,19:00,0.1,R,mgm-3,17,R,ugm-3 (GRAV EQ),0,R,ugm-3,10,R,ugm-3,10,R,ugm-3,0,R,ugm-3
10-01-2005,20:00,0.1,R,mgm-3,17,R,ugm-3 (GRAV EQ),0,R,ugm-3,8,R,ugm-3,8,R,ugm-3,3,R,ugm-3
10-01-2005,21:00,0.1,R,mgm-3,16,R,ugm-3 (GRAV EQ),0,R,ugm-3,8,R,ugm-3,8,R,ugm-3,3,R,ugm-3
10-01-2005,22:00,0.1,R,mgm-3,17,R,ugm-3 (GRAV EQ),0,R,ugm-3,8,R,ugm-3,8,R,ugm-3,3,R,ugm-3
10-01-2005,23:00,0.1,R,mgm-3,16,R,ugm-3 (GRAV EQ),0,R,ugm-3,6,R,ugm-3,6,R,ugm-3,3,R,ugm-3
10-01-2005,24:00,0.1,R,mgm-3,17,R,ugm-3 (GRAV EQ),0,R,ugm-3,6,R,ugm-3,6,R,ugm-3,3,R,ugm-3
11-01-2005,01:00,0.3,R,mgm-3,18,R,ugm-3 (GRAV EQ),0,R,ugm-3,4,R,ugm-3,4,R,ugm-3,3,R,ugm-3
11-01-2005,02:00,0.3,R,mgm-3,17,R,ugm-3 (GRAV EQ),0,R,ugm-3,2,R,ugm-3,2,R,ugm-3,3,R,ugm-3
11-01-2005,03:00,0.3,R,mgm-3,17,R,ugm-3 (GRAV EQ),0,R,ugm-3,2,R,ugm-3,2,R,ugm-3,3,R,ugm-3
11-01-2005,04:00,0.3,R,mgm-3,16,R,ugm-3 (GRAV EQ),0,R,ugm-3,2,R,ugm-3,2,R,ugm-3,3,R,ugm-3
11-01-2005,05:00,0.3,R,mgm-3,16,R,ugm-3 (GRAV EQ),0,R,ugm-3,4,R,ugm-3,4,R,ugm-3,0,R,ugm-3
11-01-2005,06:00,0.3,R,mgm-3,13,R,ugm-3 (GRAV EQ),0,R,ugm-3,6,R,ugm-3,6,R,ugm-3,0,R,ugm-3
11-01-2005,07:00,0.3,R,mgm-3,12,R,ugm-3 (GRAV EQ),1,R,ugm-3,10,R,ugm-3,11,R,ugm-3,0,R,ugm-3
11-01-2005,08:00,0.5,R,mgm-3,9,R,ugm-3 (GRAV EQ),1,R,ugm-3,19,R,ugm-3,21,R,ugm-3,0,R,ugm-3
11-01-2005,09:00,0.5,R,mgm-3,10,R,ugm-3 (GRAV EQ),3,R,ugm-3,25,R,ugm-3,29,R,ugm-3,0,R,ugm-3
11-01-2005,10:00,0.3,R,mgm-3,10,R,ugm-3 (GRAV EQ),1,R,ugm-3,13,R,ugm-3,15,R,ugm-3,0,R,ugm-3
11-01-2005,11:00,0.3,R,mgm-3,13,R,ugm-3 (GRAV EQ),1,R,ugm-3,10,R,ugm-3,11,R,ugm-3,0,R,ugm-3
11-01-2005,12:00,0.3,R,mgm-3,14,R,ugm-3 (GRAV EQ),1,R,ugm-3,8,R,ugm-3,10,R,ugm-3,3,R,ugm-3
11-01-2005,13:00,0.3,R,mgm-3,5,R,ugm-3 (GRAV EQ),1,R,ugm-3,8,R,ugm-3,10,R,ugm-3,0,R,ugm-3
11-01-2005,14:00,0.3,R,mgm-3,1,R,ugm-3 (GRAV EQ),1,R,ugm-3,8,R,ugm-3,10,R,ugm-3,3,R,ugm-3
11-01-2005,15:00,0.3,R,mgm-3,8,R,ugm-3 (GRAV EQ),1,R,ugm-3,8,R,ugm-3,10,R,ugm-3,0,R,ugm-3
11-01-2005,16:00,0.3,R,mgm-3,12,R,ugm-3 (GRAV EQ),0,R,ugm-3,6,R,ugm-3,6,R,ugm-3,0,R,ugm-3
11-01-2005,17:00,0.3,R,mgm-3,14,R,ugm-3 (GRAV EQ),0,R,ugm-3,6,R,ugm-3,6,R,ugm-3,0,R,ugm-3
11-01-2005,18:00,0.2,R,mgm-3,16,R,ugm-3 (GRAV EQ),0,R,ugm-3,6,R,ugm-3,6,R,ugm-3,3,R,ugm-3
11-01-2005,19:00,0.2,R,mgm-3,18,R,ugm-3 (GRAV EQ),0,R,ugm-3,4,R,ugm-3,4,R,ugm-3,3,R,ugm-3
11-01-2005,20:00,0.2,R,mgm-3,17,R,ugm-3 (GRAV EQ),0,R,ugm-3,4,R,ugm-3,4,R,ugm-3,0,R,ugm-3
11-01-2005,21:00,0.2,R,mgm-3,14,R,ugm-3 (GRAV EQ),0,R,ugm-3,4,R,ugm-3,4,R,ugm-3,0,R,ugm-3
11-01-2005,22:00,0.2,R,mgm-3,13,R,ugm-3 (GRAV EQ),0,R,ugm-3,2,R,ugm-3,2,R,ugm-3,0,R,ugm-3